Year,Month,Day,Hour,Minute,Value (Times are PST for insolation in W/m^2)
2015,05,27,00,00,0.00
2015,05,27,00,01,0.00
2015,05,27,00,02,0.00
2015,05,27,00,03,0.00
2015,05,27,00,04,0.00
2015,05,27,00,05,0.00
2015,05,27,00,06,0.00
2015,05,27,00,07,0.00
2015,05,27,00,08,0.00
2015,05,27,00,09,0.00
2015,05,27,00,10,0.00
2015,05,27,00,11,0.00
2015,05,27,00,12,0.00
2015,05,27,00,13,0.00
2015,05,27,00,14,0.00
2015,05,27,00,15,0.00
2015,05,27,00,16,0.00
2015,05,27,00,17,0.00
2015,05,27,00,18,0.00
2015,05,27,00,19,0.00
2015,05,27,00,20,0.00
2015,05,27,00,21,0.00
2015,05,27,00,22,0.00
2015,05,27,00,23,0.00
2015,05,27,00,24,0.00
2015,05,27,00,25,0.00
2015,05,27,00,26,0.00
2015,05,27,00,27,0.00
2015,05,27,00,28,0.00
2015,05,27,00,29,0.00
2015,05,27,00,30,0.00
2015,05,27,00,31,0.00
2015,05,27,00,32,0.00
2015,05,27,00,33,0.00
2015,05,27,00,34,0.00
2015,05,27,00,35,0.00
2015,05,27,00,36,0.00
2015,05,27,00,37,0.00
2015,05,27,00,38,0.00
2015,05,27,00,39,0.00
2015,05,27,00,40,0.00
2015,05,27,00,41,0.00
2015,05,27,00,42,0.00
2015,05,27,00,43,0.00
2015,05,27,00,44,0.00
2015,05,27,00,45,0.00
2015,05,27,00,46,0.00
2015,05,27,00,47,0.00
2015,05,27,00,48,0.00
2015,05,27,00,49,0.00
2015,05,27,00,50,0.00
2015,05,27,00,51,0.00
2015,05,27,00,52,0.00
2015,05,27,00,53,0.00
2015,05,27,00,54,0.00
2015,05,27,00,55,0.00
2015,05,27,00,56,0.00
2015,05,27,00,57,0.00
2015,05,27,00,58,0.00
2015,05,27,00,59,0.00
2015,05,27,01,00,0.00
2015,05,27,01,01,0.00
2015,05,27,01,02,0.00
2015,05,27,01,03,0.00
2015,05,27,01,04,0.00
2015,05,27,01,05,0.00
2015,05,27,01,06,0.00
2015,05,27,01,07,0.00
2015,05,27,01,08,0.00
2015,05,27,01,09,0.00
2015,05,27,01,10,0.00
2015,05,27,01,11,0.00
2015,05,27,01,12,0.00
2015,05,27,01,13,0.00
2015,05,27,01,14,0.00
2015,05,27,01,15,0.00
2015,05,27,01,16,0.00
2015,05,27,01,17,0.00
2015,05,27,01,18,0.00
2015,05,27,01,19,0.00
2015,05,27,01,20,0.00
2015,05,27,01,21,0.00
2015,05,27,01,22,0.00
2015,05,27,01,23,0.00
2015,05,27,01,24,0.00
2015,05,27,01,25,0.00
2015,05,27,01,26,0.00
2015,05,27,01,27,0.00
2015,05,27,01,28,0.00
2015,05,27,01,29,0.00
2015,05,27,01,30,0.00
2015,05,27,01,31,0.00
2015,05,27,01,32,0.00
2015,05,27,01,33,0.00
2015,05,27,01,34,0.00
2015,05,27,01,35,0.00
2015,05,27,01,36,0.00
2015,05,27,01,37,0.00
2015,05,27,01,38,0.00
2015,05,27,01,39,0.00
2015,05,27,01,40,0.00
2015,05,27,01,41,0.00
2015,05,27,01,42,0.00
2015,05,27,01,43,0.00
2015,05,27,01,44,0.00
2015,05,27,01,45,0.00
2015,05,27,01,46,0.00
2015,05,27,01,47,0.00
2015,05,27,01,48,0.00
2015,05,27,01,49,0.00
2015,05,27,01,50,0.00
2015,05,27,01,51,0.00
2015,05,27,01,52,0.00
2015,05,27,01,53,0.00
2015,05,27,01,54,0.00
2015,05,27,01,55,0.00
2015,05,27,01,56,0.00
2015,05,27,01,57,0.00
2015,05,27,01,58,0.00
2015,05,27,01,59,0.00
2015,05,27,02,00,0.00
2015,05,27,02,01,0.00
2015,05,27,02,02,0.00
2015,05,27,02,03,0.00
2015,05,27,02,04,0.00
2015,05,27,02,05,0.00
2015,05,27,02,06,0.00
2015,05,27,02,07,0.00
2015,05,27,02,08,0.00
2015,05,27,02,09,0.00
2015,05,27,02,10,0.00
2015,05,27,02,11,0.00
2015,05,27,02,12,0.00
2015,05,27,02,13,0.00
2015,05,27,02,14,0.00
2015,05,27,02,15,0.00
2015,05,27,02,16,0.00
2015,05,27,02,17,0.00
2015,05,27,02,18,0.00
2015,05,27,02,19,0.00
2015,05,27,02,20,0.00
2015,05,27,02,21,0.00
2015,05,27,02,22,0.00
2015,05,27,02,23,0.00
2015,05,27,02,24,0.00
2015,05,27,02,25,0.00
2015,05,27,02,26,0.00
2015,05,27,02,27,0.00
2015,05,27,02,28,0.00
2015,05,27,02,29,0.00
2015,05,27,02,30,0.00
2015,05,27,02,31,0.00
2015,05,27,02,32,0.00
2015,05,27,02,33,0.00
2015,05,27,02,34,0.00
2015,05,27,02,35,0.00
2015,05,27,02,36,0.00
2015,05,27,02,37,0.00
2015,05,27,02,38,0.00
2015,05,27,02,39,0.00
2015,05,27,02,40,0.00
2015,05,27,02,41,0.00
2015,05,27,02,42,0.00
2015,05,27,02,43,0.00
2015,05,27,02,44,0.00
2015,05,27,02,45,0.00
2015,05,27,02,46,0.00
2015,05,27,02,47,0.00
2015,05,27,02,48,0.00
2015,05,27,02,49,0.00
2015,05,27,02,50,0.00
2015,05,27,02,51,0.00
2015,05,27,02,52,0.00
2015,05,27,02,53,0.00
2015,05,27,02,54,0.00
2015,05,27,02,55,0.00
2015,05,27,02,56,0.00
2015,05,27,02,57,0.00
2015,05,27,02,58,0.00
2015,05,27,02,59,0.00
2015,05,27,03,00,0.00
2015,05,27,03,01,0.00
2015,05,27,03,02,0.00
2015,05,27,03,03,0.00
2015,05,27,03,04,0.00
2015,05,27,03,05,0.00
2015,05,27,03,06,0.00
2015,05,27,03,07,0.00
2015,05,27,03,08,0.00
2015,05,27,03,09,0.00
2015,05,27,03,10,0.00
2015,05,27,03,11,0.00
2015,05,27,03,12,0.00
2015,05,27,03,13,0.00
2015,05,27,03,14,0.00
2015,05,27,03,15,0.00
2015,05,27,03,16,0.00
2015,05,27,03,17,0.00
2015,05,27,03,18,0.00
2015,05,27,03,19,0.00
2015,05,27,03,20,0.00
2015,05,27,03,21,0.00
2015,05,27,03,22,0.00
2015,05,27,03,23,0.00
2015,05,27,03,24,0.00
2015,05,27,03,25,0.00
2015,05,27,03,26,0.00
2015,05,27,03,27,0.00
2015,05,27,03,28,0.00
2015,05,27,03,29,0.00
2015,05,27,03,30,0.00
2015,05,27,03,31,0.00
2015,05,27,03,32,0.00
2015,05,27,03,33,0.00
2015,05,27,03,34,0.00
2015,05,27,03,35,0.00
2015,05,27,03,36,0.00
2015,05,27,03,37,0.00
2015,05,27,03,38,0.00
2015,05,27,03,39,0.00
2015,05,27,03,40,0.00
2015,05,27,03,41,0.00
2015,05,27,03,42,0.00
2015,05,27,03,43,0.00
2015,05,27,03,44,0.00
2015,05,27,03,45,0.00
2015,05,27,03,46,0.00
2015,05,27,03,47,0.00
2015,05,27,03,48,0.00
2015,05,27,03,49,0.00
2015,05,27,03,50,0.00
2015,05,27,03,51,0.00
2015,05,27,03,52,0.00
2015,05,27,03,53,0.00
2015,05,27,03,54,0.00
2015,05,27,03,55,0.00
2015,05,27,03,56,0.00
2015,05,27,03,57,0.00
2015,05,27,03,58,0.00
2015,05,27,03,59,0.00
2015,05,27,04,00,0.00
2015,05,27,04,01,0.00
2015,05,27,04,02,0.00
2015,05,27,04,03,0.00
2015,05,27,04,04,0.00
2015,05,27,04,05,0.00
2015,05,27,04,06,0.00
2015,05,27,04,07,0.00
2015,05,27,04,08,0.00
2015,05,27,04,09,0.00
2015,05,27,04,10,0.00
2015,05,27,04,11,0.00
2015,05,27,04,12,0.00
2015,05,27,04,13,0.00
2015,05,27,04,14,0.00
2015,05,27,04,15,0.00
2015,05,27,04,16,0.00
2015,05,27,04,17,0.00
2015,05,27,04,18,0.00
2015,05,27,04,19,0.00
2015,05,27,04,20,0.00
2015,05,27,04,21,0.00
2015,05,27,04,22,0.00
2015,05,27,04,23,0.00
2015,05,27,04,24,0.00
2015,05,27,04,25,0.00
2015,05,27,04,26,0.00
2015,05,27,04,27,0.00
2015,05,27,04,28,0.00
2015,05,27,04,29,0.00
2015,05,27,04,30,0.00
2015,05,27,04,31,0.00
2015,05,27,04,32,0.00
2015,05,27,04,33,0.00
2015,05,27,04,34,0.00
2015,05,27,04,35,0.00
2015,05,27,04,36,0.00
2015,05,27,04,37,0.00
2015,05,27,04,38,0.00
2015,05,27,04,39,0.00
2015,05,27,04,40,0.00
2015,05,27,04,41,0.00
2015,05,27,04,42,0.00
2015,05,27,04,43,0.00
2015,05,27,04,44,0.00
2015,05,27,04,45,0.00
2015,05,27,04,46,0.00
2015,05,27,04,47,0.00
2015,05,27,04,48,0.00
2015,05,27,04,49,0.00
2015,05,27,04,50,0.00
2015,05,27,04,51,0.00
2015,05,27,04,52,0.00
2015,05,27,04,53,0.00
2015,05,27,04,54,0.00
2015,05,27,04,55,0.00
2015,05,27,04,56,0.00
2015,05,27,04,57,0.00
2015,05,27,04,58,0.00
2015,05,27,04,59,0.00
2015,05,27,05,00,0.00
2015,05,27,05,01,0.00
2015,05,27,05,02,0.00
2015,05,27,05,03,0.00
2015,05,27,05,04,0.00
2015,05,27,05,05,0.00
2015,05,27,05,06,0.00
2015,05,27,05,07,0.00
2015,05,27,05,08,0.00
2015,05,27,05,09,0.00
2015,05,27,05,10,0.00
2015,05,27,05,11,0.00
2015,05,27,05,12,0.00
2015,05,27,05,13,0.00
2015,05,27,05,14,0.00
2015,05,27,05,15,0.00
2015,05,27,05,16,0.00
2015,05,27,05,17,0.00
2015,05,27,05,18,0.00
2015,05,27,05,19,0.00
2015,05,27,05,20,0.00
2015,05,27,05,21,1.40
2015,05,27,05,22,5.00
2015,05,27,05,23,5.00
2015,05,27,05,24,5.00
2015,05,27,05,25,5.00
2015,05,27,05,26,7.00
2015,05,27,05,27,7.00
2015,05,27,05,28,7.00
2015,05,27,05,29,7.00
2015,05,27,05,30,8.50
2015,05,27,05,31,9.00
2015,05,27,05,32,9.40
2015,05,27,05,33,11.00
2015,05,27,05,34,11.00
2015,05,27,05,35,11.60
2015,05,27,05,36,12.00
2015,05,27,05,37,13.70
2015,05,27,05,38,14.00
2015,05,27,05,39,14.70
2015,05,27,05,40,16.00
2015,05,27,05,41,17.20
2015,05,27,05,42,18.00
2015,05,27,05,43,18.00
2015,05,27,05,44,19.00
2015,05,27,05,45,19.70
2015,05,27,05,46,21.00
2015,05,27,05,47,21.00
2015,05,27,05,48,22.60
2015,05,27,05,49,23.10
2015,05,27,05,50,25.00
2015,05,27,05,51,25.40
2015,05,27,05,52,27.00
2015,05,27,05,53,29.30
2015,05,27,05,54,30.00
2015,05,27,05,55,32.00
2015,05,27,05,56,33.50
2015,05,27,05,57,36.60
2015,05,27,05,58,40.60
2015,05,27,05,59,45.30
2015,05,27,06,00,48.70
2015,05,27,06,01,51.50
2015,05,27,06,02,54.60
2015,05,27,06,03,50.10
2015,05,27,06,04,49.00
2015,05,27,06,05,49.00
2015,05,27,06,06,49.00
2015,05,27,06,07,49.00
2015,05,27,06,08,49.60
2015,05,27,06,09,51.00
2015,05,27,06,10,52.10
2015,05,27,06,11,53.70
2015,05,27,06,12,57.50
2015,05,27,06,13,62.90
2015,05,27,06,14,67.70
2015,05,27,06,15,69.00
2015,05,27,06,16,66.60
2015,05,27,06,17,66.50
2015,05,27,06,18,68.90
2015,05,27,06,19,70.00
2015,05,27,06,20,70.00
2015,05,27,06,21,70.00
2015,05,27,06,22,70.00
2015,05,27,06,23,70.00
2015,05,27,06,24,69.00
2015,05,27,06,25,67.50
2015,05,27,06,26,72.00
2015,05,27,06,27,76.50
2015,05,27,06,28,76.30
2015,05,27,06,29,78.30
2015,05,27,06,30,77.20
2015,05,27,06,31,78.00
2015,05,27,06,32,81.80
2015,05,27,06,33,83.50
2015,05,27,06,34,83.30
2015,05,27,06,35,83.80
2015,05,27,06,36,84.00
2015,05,27,06,37,85.70
2015,05,27,06,38,90.40
2015,05,27,06,39,89.40
2015,05,27,06,40,84.40
2015,05,27,06,41,83.90
2015,05,27,06,42,90.70
2015,05,27,06,43,96.90
2015,05,27,06,44,104.10
2015,05,27,06,45,112.10
2015,05,27,06,46,128.90
2015,05,27,06,47,138.20
2015,05,27,06,48,163.10
2015,05,27,06,49,171.70
2015,05,27,06,50,169.30
2015,05,27,06,51,170.90
2015,05,27,06,52,176.90
2015,05,27,06,53,176.20
2015,05,27,06,54,152.50
2015,05,27,06,55,134.10
2015,05,27,06,56,127.90
2015,05,27,06,57,121.80
2015,05,27,06,58,125.60
2015,05,27,06,59,128.10
2015,05,27,07,00,134.20
2015,05,27,07,01,135.60
2015,05,27,07,02,138.90
2015,05,27,07,03,139.80
2015,05,27,07,04,136.10
2015,05,27,07,05,134.10
2015,05,27,07,06,134.00
2015,05,27,07,07,134.00
2015,05,27,07,08,134.50
2015,05,27,07,09,137.70
2015,05,27,07,10,140.60
2015,05,27,07,11,146.00
2015,05,27,07,12,149.90
2015,05,27,07,13,154.10
2015,05,27,07,14,157.00
2015,05,27,07,15,159.30
2015,05,27,07,16,160.00
2015,05,27,07,17,161.90
2015,05,27,07,18,162.20
2015,05,27,07,19,163.00
2015,05,27,07,20,163.00
2015,05,27,07,21,162.30
2015,05,27,07,22,160.30
2015,05,27,07,23,159.70
2015,05,27,07,24,158.50
2015,05,27,07,25,160.00
2015,05,27,07,26,160.00
2015,05,27,07,27,160.00
2015,05,27,07,28,161.70
2015,05,27,07,29,163.30
2015,05,27,07,30,165.00
2015,05,27,07,31,166.70
2015,05,27,07,32,170.70
2015,05,27,07,33,173.50
2015,05,27,07,34,177.60
2015,05,27,07,35,179.70
2015,05,27,07,36,184.00
2015,05,27,07,37,188.90
2015,05,27,07,38,195.10
2015,05,27,07,39,199.30
2015,05,27,07,40,201.80
2015,05,27,07,41,204.30
2015,05,27,07,42,206.30
2015,05,27,07,43,207.00
2015,05,27,07,44,201.10
2015,05,27,07,45,194.00
2015,05,27,07,46,193.00
2015,05,27,07,47,194.40
2015,05,27,07,48,201.70
2015,05,27,07,49,209.70
2015,05,27,07,50,213.70
2015,05,27,07,51,214.00
2015,05,27,07,52,217.70
2015,05,27,07,53,217.50
2015,05,27,07,54,216.00
2015,05,27,07,55,217.00
2015,05,27,07,56,221.50
2015,05,27,07,57,223.00
2015,05,27,07,58,218.20
2015,05,27,07,59,218.80
2015,05,27,08,00,221.00
2015,05,27,08,01,221.00
2015,05,27,08,02,221.00
2015,05,27,08,03,221.00
2015,05,27,08,04,223.30
2015,05,27,08,05,225.00
2015,05,27,08,06,226.70
2015,05,27,08,07,230.70
2015,05,27,08,08,234.80
2015,05,27,08,09,240.30
2015,05,27,08,10,246.70
2015,05,27,08,11,251.60
2015,05,27,08,12,253.90
2015,05,27,08,13,256.10
2015,05,27,08,14,257.00
2015,05,27,08,15,256.80
2015,05,27,08,16,253.00
2015,05,27,08,17,253.00
2015,05,27,08,18,253.90
2015,05,27,08,19,256.30
2015,05,27,08,20,259.20
2015,05,27,08,21,261.80
2015,05,27,08,22,263.60
2015,05,27,08,23,262.00
2015,05,27,08,24,263.00
2015,05,27,08,25,265.90
2015,05,27,08,26,270.00
2015,05,27,08,27,272.00
2015,05,27,08,28,274.80
2015,05,27,08,29,279.10
2015,05,27,08,30,283.10
2015,05,27,08,31,288.30
2015,05,27,08,32,293.10
2015,05,27,08,33,295.10
2015,05,27,08,34,298.20
2015,05,27,08,35,304.00
2015,05,27,08,36,308.50
2015,05,27,08,37,310.30
2015,05,27,08,38,316.40
2015,05,27,08,39,320.20
2015,05,27,08,40,324.10
2015,05,27,08,41,334.20
2015,05,27,08,42,339.20
2015,05,27,08,43,340.10
2015,05,27,08,44,349.00
2015,05,27,08,45,359.70
2015,05,27,08,46,368.80
2015,05,27,08,47,374.80
2015,05,27,08,48,368.00
2015,05,27,08,49,369.70
2015,05,27,08,50,397.50
2015,05,27,08,51,453.00
2015,05,27,08,52,460.60
2015,05,27,08,53,439.70
2015,05,27,08,54,462.70
2015,05,27,08,55,490.00
2015,05,27,08,56,490.00
2015,05,27,08,57,535.00
2015,05,27,08,58,579.90
2015,05,27,08,59,574.70
2015,05,27,09,00,581.00
2015,05,27,09,01,567.40
2015,05,27,09,02,580.50
2015,05,27,09,03,595.60
2015,05,27,09,04,589.00
2015,05,27,09,05,608.10
2015,05,27,09,06,614.70
2015,05,27,09,07,602.00
2015,05,27,09,08,603.00
2015,05,27,09,09,606.40
2015,05,27,09,10,607.20
2015,05,27,09,11,605.50
2015,05,27,09,12,603.70
2015,05,27,09,13,605.30
2015,05,27,09,14,601.60
2015,05,27,09,15,605.00
2015,05,27,09,16,602.30
2015,05,27,09,17,596.90
2015,05,27,09,18,588.70
2015,05,27,09,19,592.40
2015,05,27,09,20,597.50
2015,05,27,09,21,575.00
2015,05,27,09,22,608.30
2015,05,27,09,23,611.00
2015,05,27,09,24,610.00
2015,05,27,09,25,610.00
2015,05,27,09,26,613.50
2015,05,27,09,27,616.50
2015,05,27,09,28,615.90
2015,05,27,09,29,617.00
2015,05,27,09,30,618.40
2015,05,27,09,31,617.30
2015,05,27,09,32,622.40
2015,05,27,09,33,631.00
2015,05,27,09,34,632.70
2015,05,27,09,35,639.30
2015,05,27,09,36,645.80
2015,05,27,09,37,643.50
2015,05,27,09,38,655.20
2015,05,27,09,39,665.50
2015,05,27,09,40,671.00
2015,05,27,09,41,671.00
2015,05,27,09,42,673.90
2015,05,27,09,43,673.90
2015,05,27,09,44,660.00
2015,05,27,09,45,699.70
2015,05,27,09,46,706.50
2015,05,27,09,47,694.70
2015,05,27,09,48,689.90
2015,05,27,09,49,715.00
2015,05,27,09,50,722.80
2015,05,27,09,51,713.80
2015,05,27,09,52,673.20
2015,05,27,09,53,671.40
2015,05,27,09,54,671.80
2015,05,27,09,55,707.10
2015,05,27,09,56,715.80
2015,05,27,09,57,707.00
2015,05,27,09,58,657.80
2015,05,27,09,59,570.30
2015,05,27,10,00,494.50
2015,05,27,10,01,466.70
2015,05,27,10,02,466.00
2015,05,27,10,03,466.00
2015,05,27,10,04,466.00
2015,05,27,10,05,466.00
2015,05,27,10,06,778.90
2015,05,27,10,07,862.10
2015,05,27,10,08,830.80
2015,05,27,10,09,881.30
2015,05,27,10,10,872.10
2015,05,27,10,11,930.10
2015,05,27,10,12,875.50
2015,05,27,10,13,935.70
2015,05,27,10,14,952.50
2015,05,27,10,15,959.90
2015,05,27,10,16,974.00
2015,05,27,10,17,802.50
2015,05,27,10,18,715.50
2015,05,27,10,19,645.00
2015,05,27,10,20,719.50
2015,05,27,10,21,879.00
2015,05,27,10,22,779.20
2015,05,27,10,23,697.50
2015,05,27,10,24,773.30
2015,05,27,10,25,766.00
2015,05,27,10,26,726.40
2015,05,27,10,27,633.60
2015,05,27,10,28,659.00
2015,05,27,10,29,677.00
2015,05,27,10,30,732.80
2015,05,27,10,31,749.60
2015,05,27,10,32,703.70
2015,05,27,10,33,733.00
2015,05,27,10,34,636.50
2015,05,27,10,35,569.30
2015,05,27,10,36,544.00
2015,05,27,10,37,546.90
2015,05,27,10,38,560.30
2015,05,27,10,39,566.30
2015,05,27,10,40,632.30
2015,05,27,10,41,658.60
2015,05,27,10,42,635.90
2015,05,27,10,43,606.20
2015,05,27,10,44,610.80
2015,05,27,10,45,607.10
2015,05,27,10,46,599.70
2015,05,27,10,47,613.50
2015,05,27,10,48,588.40
2015,05,27,10,49,582.40
2015,05,27,10,50,577.90
2015,05,27,10,51,611.00
2015,05,27,10,52,611.00
2015,05,27,10,53,645.60
2015,05,27,10,54,650.50
2015,05,27,10,55,619.30
2015,05,27,10,56,595.10
2015,05,27,10,57,589.90
2015,05,27,10,58,638.70
2015,05,27,10,59,594.80
2015,05,27,11,00,598.80
2015,05,27,11,01,659.50
2015,05,27,11,02,663.20
2015,05,27,11,03,676.60
2015,05,27,11,04,745.50
2015,05,27,11,05,762.00
2015,05,27,11,06,593.50
2015,05,27,11,07,584.00
2015,05,27,11,08,574.00
2015,05,27,11,09,584.50
2015,05,27,11,10,596.80
2015,05,27,11,11,603.40
2015,05,27,11,12,617.40
2015,05,27,11,13,602.60
2015,05,27,11,14,594.50
2015,05,27,11,15,612.10
2015,05,27,11,16,612.70
2015,05,27,11,17,614.10
2015,05,27,11,18,629.50
2015,05,27,11,19,643.80
2015,05,27,11,20,674.00
2015,05,27,11,21,668.60
2015,05,27,11,22,635.60
2015,05,27,11,23,670.60
2015,05,27,11,24,703.80
2015,05,27,11,25,686.30
2015,05,27,11,26,666.30
2015,05,27,11,27,693.20
2015,05,27,11,28,684.20
2015,05,27,11,29,713.00
2015,05,27,11,30,730.40
2015,05,27,11,31,687.80
2015,05,27,11,32,669.90
2015,05,27,11,33,661.60
2015,05,27,11,34,634.30
2015,05,27,11,35,613.30
2015,05,27,11,36,593.90
2015,05,27,11,37,621.90
2015,05,27,11,38,662.60
2015,05,27,11,39,668.20
2015,05,27,11,40,691.20
2015,05,27,11,41,732.50
2015,05,27,11,42,713.40
2015,05,27,11,43,689.00
2015,05,27,11,44,680.00
2015,05,27,11,45,653.80
2015,05,27,11,46,645.80
2015,05,27,11,47,666.70
2015,05,27,11,48,704.20
2015,05,27,11,49,682.90
2015,05,27,11,50,659.70
2015,05,27,11,51,601.50
2015,05,27,11,52,601.30
2015,05,27,11,53,656.00
2015,05,27,11,54,656.00
2015,05,27,11,55,740.00
2015,05,27,11,56,788.50
2015,05,27,11,57,777.00
2015,05,27,11,58,895.90
2015,05,27,11,59,816.00
2015,05,27,12,00,820.70
2015,05,27,12,01,885.30
2015,05,27,12,02,869.40
2015,05,27,12,03,881.50
2015,05,27,12,04,889.10
2015,05,27,12,05,874.50
2015,05,27,12,06,881.60
2015,05,27,12,07,878.90
2015,05,27,12,08,871.90
2015,05,27,12,09,868.30
2015,05,27,12,10,867.00
2015,05,27,12,11,866.00
2015,05,27,12,12,860.10
2015,05,27,12,13,854.30
2015,05,27,12,14,853.70
2015,05,27,12,15,861.70
2015,05,27,12,16,861.50
2015,05,27,12,17,865.90
2015,05,27,12,18,866.00
2015,05,27,12,19,861.80
2015,05,27,12,20,862.50
2015,05,27,12,21,866.50
2015,05,27,12,22,867.80
2015,05,27,12,23,867.00
2015,05,27,12,24,867.00
2015,05,27,12,25,867.00
2015,05,27,12,26,867.00
2015,05,27,12,27,866.90
2015,05,27,12,28,865.00
2015,05,27,12,29,865.00
2015,05,27,12,30,865.00
2015,05,27,12,31,866.20
2015,05,27,12,32,867.00
2015,05,27,12,33,869.80
2015,05,27,12,34,871.60
2015,05,27,12,35,870.70
2015,05,27,12,36,872.00
2015,05,27,12,37,872.00
2015,05,27,12,38,872.00
2015,05,27,12,39,872.00
2015,05,27,12,40,872.40
2015,05,27,12,41,873.20
2015,05,27,12,42,872.00
2015,05,27,12,43,872.00
2015,05,27,12,44,872.00
2015,05,27,12,45,872.20
2015,05,27,12,46,874.00
2015,05,27,12,47,874.00
2015,05,27,12,48,874.00
2015,05,27,12,49,872.60
2015,05,27,12,50,873.70
2015,05,27,12,51,874.60
2015,05,27,12,52,872.50
2015,05,27,12,53,874.00
2015,05,27,12,54,874.60
2015,05,27,12,55,874.30
2015,05,27,12,56,874.00
2015,05,27,12,57,874.00
2015,05,27,12,58,874.30
2015,05,27,12,59,874.60
2015,05,27,13,00,874.60
2015,05,27,13,01,875.00
2015,05,27,13,02,875.00
2015,05,27,13,03,875.30
2015,05,27,13,04,876.40
2015,05,27,13,05,875.00
2015,05,27,13,06,876.20
2015,05,27,13,07,877.00
2015,05,27,13,08,875.20
2015,05,27,13,09,875.30
2015,05,27,13,10,877.00
2015,05,27,13,11,877.00
2015,05,27,13,12,877.00
2015,05,27,13,13,877.00
2015,05,27,13,14,876.90
2015,05,27,13,15,875.40
2015,05,27,13,16,877.00
2015,05,27,13,17,875.60
2015,05,27,13,18,874.00
2015,05,27,13,19,874.80
2015,05,27,13,20,876.70
2015,05,27,13,21,875.40
2015,05,27,13,22,876.30
2015,05,27,13,23,875.00
2015,05,27,13,24,876.30
2015,05,27,13,25,874.60
2015,05,27,13,26,875.10
2015,05,27,13,27,877.00
2015,05,27,13,28,876.20
2015,05,27,13,29,875.00
2015,05,27,13,30,874.30
2015,05,27,13,31,876.50
2015,05,27,13,32,875.10
2015,05,27,13,33,874.70
2015,05,27,13,34,874.00
2015,05,27,13,35,874.00
2015,05,27,13,36,874.00
2015,05,27,13,37,874.90
2015,05,27,13,38,874.00
2015,05,27,13,39,873.40
2015,05,27,13,40,872.90
2015,05,27,13,41,872.80
2015,05,27,13,42,872.00
2015,05,27,13,43,872.00
2015,05,27,13,44,871.60
2015,05,27,13,45,870.00
2015,05,27,13,46,869.10
2015,05,27,13,47,867.40
2015,05,27,13,48,867.70
2015,05,27,13,49,867.90
2015,05,27,13,50,865.50
2015,05,27,13,51,869.30
2015,05,27,13,52,870.10
2015,05,27,13,53,868.00
2015,05,27,13,54,865.70
2015,05,27,13,55,865.10
2015,05,27,13,56,866.60
2015,05,27,13,57,865.00
2015,05,27,13,58,865.00
2015,05,27,13,59,865.00
2015,05,27,14,00,865.00
2015,05,27,14,01,863.10
2015,05,27,14,02,863.00
2015,05,27,14,03,863.00
2015,05,27,14,04,862.00
2015,05,27,14,05,860.40
2015,05,27,14,06,860.00
2015,05,27,14,07,859.80
2015,05,27,14,08,857.50
2015,05,27,14,09,856.00
2015,05,27,14,10,856.00
2015,05,27,14,11,856.00
2015,05,27,14,12,856.00
2015,05,27,14,13,854.00
2015,05,27,14,14,853.00
2015,05,27,14,15,852.20
2015,05,27,14,16,849.90
2015,05,27,14,17,850.40
2015,05,27,14,18,849.30
2015,05,27,14,19,847.30
2015,05,27,14,20,848.40
2015,05,27,14,21,847.00
2015,05,27,14,22,847.00
2015,05,27,14,23,846.20
2015,05,27,14,24,845.90
2015,05,27,14,25,843.70
2015,05,27,14,26,842.00
2015,05,27,14,27,841.10
2015,05,27,14,28,840.00
2015,05,27,14,29,841.50
2015,05,27,14,30,838.30
2015,05,27,14,31,837.20
2015,05,27,14,32,837.70
2015,05,27,14,33,837.00
2015,05,27,14,34,835.80
2015,05,27,14,35,835.00
2015,05,27,14,36,833.20
2015,05,27,14,37,832.50
2015,05,27,14,38,831.00
2015,05,27,14,39,830.50
2015,05,27,14,40,828.80
2015,05,27,14,41,826.40
2015,05,27,14,42,827.70
2015,05,27,14,43,825.60
2015,05,27,14,44,824.00
2015,05,27,14,45,823.50
2015,05,27,14,46,821.70
2015,05,27,14,47,819.40
2015,05,27,14,48,820.90
2015,05,27,14,49,820.00
2015,05,27,14,50,816.60
2015,05,27,14,51,816.00
2015,05,27,14,52,814.60
2015,05,27,14,53,815.70
2015,05,27,14,54,812.00
2015,05,27,14,55,811.20
2015,05,27,14,56,809.00
2015,05,27,14,57,807.80
2015,05,27,14,58,807.00
2015,05,27,14,59,805.30
2015,05,27,15,00,803.00
2015,05,27,15,01,803.60
2015,05,27,15,02,802.80
2015,05,27,15,03,800.00
2015,05,27,15,04,800.00
2015,05,27,15,05,798.30
2015,05,27,15,06,797.70
2015,05,27,15,07,795.70
2015,05,27,15,08,794.10
2015,05,27,15,09,791.90
2015,05,27,15,10,789.50
2015,05,27,15,11,788.90
2015,05,27,15,12,786.00
2015,05,27,15,13,786.00
2015,05,27,15,14,784.10
2015,05,27,15,15,782.00
2015,05,27,15,16,780.50
2015,05,27,15,17,777.40
2015,05,27,15,18,778.10
2015,05,27,15,19,775.00
2015,05,27,15,20,775.00
2015,05,27,15,21,775.00
2015,05,27,15,22,772.70
2015,05,27,15,23,770.00
2015,05,27,15,24,767.40
2015,05,27,15,25,764.20
2015,05,27,15,26,763.00
2015,05,27,15,27,761.60
2015,05,27,15,28,761.00
2015,05,27,15,29,758.90
2015,05,27,15,30,757.50
2015,05,27,15,31,755.20
2015,05,27,15,32,752.90
2015,05,27,15,33,752.00
2015,05,27,15,34,751.20
2015,05,27,15,35,747.20
2015,05,27,15,36,747.00
2015,05,27,15,37,745.70
2015,05,27,15,38,744.00
2015,05,27,15,39,739.10
2015,05,27,15,40,737.00
2015,05,27,15,41,736.70
2015,05,27,15,42,735.00
2015,05,27,15,43,734.10
2015,05,27,15,44,730.70
2015,05,27,15,45,728.30
2015,05,27,15,46,726.10
2015,05,27,15,47,722.00
2015,05,27,15,48,721.70
2015,05,27,15,49,719.30
2015,05,27,15,50,715.80
2015,05,27,15,51,712.70
2015,05,27,15,52,713.80
2015,05,27,15,53,713.20
2015,05,27,15,54,709.30
2015,05,27,15,55,708.00
2015,05,27,15,56,708.00
2015,05,27,15,57,707.20
2015,05,27,15,58,703.30
2015,05,27,15,59,701.00
2015,05,27,16,00,700.00
2015,05,27,16,01,696.00
2015,05,27,16,02,694.00
2015,05,27,16,03,693.20
2015,05,27,16,04,690.70
2015,05,27,16,05,687.00
2015,05,27,16,06,686.60
2015,05,27,16,07,685.00
2015,05,27,16,08,682.70
2015,05,27,16,09,680.30
2015,05,27,16,10,678.70
2015,05,27,16,11,675.00
2015,05,27,16,12,673.40
2015,05,27,16,13,671.00
2015,05,27,16,14,669.00
2015,05,27,16,15,666.30
2015,05,27,16,16,663.90
2015,05,27,16,17,662.50
2015,05,27,16,18,660.20
2015,05,27,16,19,656.30
2015,05,27,16,20,652.50
2015,05,27,16,21,650.30
2015,05,27,16,22,649.90
2015,05,27,16,23,648.40
2015,05,27,16,24,646.10
2015,05,27,16,25,643.30
2015,05,27,16,26,640.50
2015,05,27,16,27,638.10
2015,05,27,16,28,634.60
2015,05,27,16,29,633.60
2015,05,27,16,30,633.20
2015,05,27,16,31,629.70
2015,05,27,16,32,626.80
2015,05,27,16,33,624.20
2015,05,27,16,34,621.80
2015,05,27,16,35,620.30
2015,05,27,16,36,617.20
2015,05,27,16,37,615.00
2015,05,27,16,38,612.70
2015,05,27,16,39,611.70
2015,05,27,16,40,605.80
2015,05,27,16,41,603.50
2015,05,27,16,42,602.00
2015,05,27,16,43,600.40
2015,05,27,16,44,599.00
2015,05,27,16,45,596.00
2015,05,27,16,46,594.00
2015,05,27,16,47,592.80
2015,05,27,16,48,590.00
2015,05,27,16,49,587.70
2015,05,27,16,50,584.50
2015,05,27,16,51,581.90
2015,05,27,16,52,579.20
2015,05,27,16,53,577.00
2015,05,27,16,54,574.70
2015,05,27,16,55,571.50
2015,05,27,16,56,570.20
2015,05,27,16,57,567.80
2015,05,27,16,58,565.10
2015,05,27,16,59,561.20
2015,05,27,17,00,559.00
2015,05,27,17,01,559.00
2015,05,27,17,02,554.90
2015,05,27,17,03,552.00
2015,05,27,17,04,551.40
2015,05,27,17,05,548.70
2015,05,27,17,06,544.70